This demonstration page uses our WeatherBlox Daily Observations layout. Learn more.

Left ArrowRight Arrow

Hourly Observations for February 23, 2022

Temp ( °F °C ) Dew Point ( °F °C ) Humidity (%) Winds ( mph kmh ) Pressure ( in mb ) Visibility ( mi km ) Precip ( " mm )
12:56 am 00:56 Mostly Clear 0 -17.6 -11 -23.9 58 58 NNW 17 28 30.71 1040 10 16 0.00 0.00
1:56 am 01:56 Partly Cloudy 0 -18 -12 -24.3 58 58 N 16 26 30.71 1040 10 16 0.00 0.00
2:56 am 02:56 Cloudy 0 -17.9 -12 -24.4 57 57 NNW 14 22 30.73 1041 10 16 0.00 0.00
3:56 am 03:56 Cloudy 0 -17.9 -12 -24.2 58 58 N 12 19 30.72 1040 10 16 0.00 0.00
4:56 am 04:56 Cloudy -1 -18.1 -12 -24.4 58 58 NNW 12 19 30.76 1042 10 16 0.00 0.00
5:56 am 05:56 Mostly Cloudy -1 -18.4 -12 -24.7 58 58 NNW 12 19 30.80 1043 10 16 0.00 0.00
6:56 am 06:56 Mostly Cloudy -1 -18.5 -13 -24.8 58 58 NNW 12 19 30.79 1043 10 16 0.00 0.00
7:56 am 07:56 Cloudy 0 -17.8 -11 -24.1 58 58 NNW 12 19 30.79 1043 10 16 0.00 0.00
8:56 am 08:56 Mostly Cloudy 2 -16.7 -10 -23.5 56 56 N 8 13 30.76 1042 10 16 0.00 0.00
9:56 am 09:56 undefined 4 -15.3 -9 -22.8 53 53 N 8 13 30.79 1043 10 16 0.00 0.00
10:56 am 10:56 Mostly Sunny 7 -13.9 -8 -22.1 50 50 NW 7 11 30.80 1043 10 16 0.00 0.00
11:56 am 11:56 Mostly Sunny 9 -12.6 -7 -21.6 47 47 NNW 8 13 30.77 1042 10 16 0.00 0.00
12:56 pm 12:56 Sunny 12 -11.1 -6 -21 44 44 NNE 7 11 30.72 1040 10 16 0.00 0.00
1:56 pm 13:56 Mostly Sunny 13 -10.4 -5 -20.6 43 43 N 8 13 30.68 1039 10 16 0.00 0.00
2:56 pm 14:56 Sunny 15 -9.5 -5 -20.3 41 41 N 9 15 30.66 1038 10 16 0.00 0.00
3:56 pm 15:56 Sunny 16 -9 -4 -19.9 41 41 NNE 6 9 30.64 1038 10 16 0.00 0.00
4:56 pm 16:56 undefined 15 -9.3 -3 -19.3 44 44 NE 9 15 30.62 1037 10 16 0.00 0.00
5:56 pm 17:56 Sunny 13 -10.8 -3 -19.5 49 49 NE 7 11 30.64 1038 10 16 0.00 0.00
6:56 pm 18:56 Clear 11 -11.8 -3 -19.5 53 53 NNE 7 11 30.63 1037 10 16 0.00 0.00
7:56 pm 19:56 Mostly Clear 10 -12.3 -2 -19.1 57 57 N 7 11 30.64 1038 10 16 0.00 0.00
8:56 pm 20:56 Partly Cloudy 9 -12.6 -3 -19.4 57 57 NNE 6 9 30.62 1037 10 16 0.00 0.00
9:56 pm 21:56 Mostly Cloudy 10 -12.5 -3 -19.3 57 57 NNE 10 17 30.63 1037 10 16 0.00 0.00
10:56 pm 22:56 Cloudy 10 -12.5 -2 -18.7 60 60 NE 8 13 30.62 1037 10 16 0.00 0.00
11:56 pm 23:56 Cloudy 9 -12.9 -2 -18.7 62 62 NNE 7 11 30.60 1036 10 16 0.00 0.00

Powered by AerisWeather